Location: Lussas
(44.6119°N, 4.4726°E)
Time: 15:16:55
(UTC+00:00)

Envisat - Pass Details

Date: 26 November 2020
Orbit: 764 x 766 km, 98.1° (Epoch: 28 January)

Event Time Altitude Azimuth Distance (km) Brightness Sun altitude
Rises 05:04:16 0° 20° (NNE) 3,245 6.4 -19.0°
Reaches altitude 10° 05:06:44 10° 28° (NNE) 2,313 5.7 -18.5°
Maximum altitude 05:11:30 40° 97° (E) 1,129 4.5 -17.7°
Drops below altitude 10° 05:16:15 10° 167° (SSE) 2,296 5.8 -16.9°
Sets 05:18:40 0° 174° (S) 3,218 6.5 -16.5°
